Regional Weather Roundup
Issued by NWS

Home | Current Version | Previous Version | Text Only | Print | Product List | Glossary Off
Versions: 1 2 3 4 5 6 7 8 9 10 11 12 13 14 15 16 17 18 19 20 21 22 23 24 25 26 27 28 29 30 31 32 33 34 35 36 37 38 39 40 41 42 43 44 45 46 47 48 49 50

000
ASUS45 KCYS 050710
RWRWY

WYOMING REGIONAL WEATHER ROUNDUP
NATIONAL WEATHER SERVICE CHEYENNE WY
100 AM MDT TUE MAY 05 2015

NOTE:  "FAIR" INDICATES FEW OR NO CLOUDS BELOW 12,000 FEET
WITH NO SIGNIFICANT WEATHER AND/OR OBSTRUCTIONS TO VISIBILITY.

WYZ001-050800-
YELLOWSTONE NATIONAL PARK

CITY           SKY/WX    TMP DP  RH WIND       PRES   REMARKS
LK YELLOWSTONE   N/A     32  28  85 CALM      30.07S
W YELLOWSTONE  NOT AVBL

$$
WYZ002>013-054>058-071-098>099-050800-
NORTHERN WYOMING

CITY           SKY/WX    TMP DP  RH WIND       PRES   REMARKS
JACKSON        FAIR      39  34  81 CALM      30.01R
CODY           FAIR      50  41  71 S7        29.91F
GREYBULL       FAIR      55  39  54 SE6       29.88F
WORLAND        FAIR      55  43  63 SE7       29.90S
SHERIDAN       FAIR      50  41  71 S13       29.89F
BUFFALO        FAIR      48  41  76 SE24G30   29.95F
GILLETTE       FAIR      47  33  58 S21       29.98F
HULETT         FAIR      54  32  43 CALM      30.02F
NEWCASTLE      CLOUDY    52  27  37 SE14G23   30.08F

$$
WYZ014>020-022>026-101>103-050800-
CENTRAL WYOMING

CITY           SKY/WX    TMP DP  RH WIND       PRES   REMARKS
BIG PINEY      MOCLDY    46  39  76 S5        30.05F
PINEDALE       CLOUDY    46  39  76 CALM      30.05F
DUBOIS         PTSUNNY   41  34  75 NW7       30.05R
LANDER         FAIR      56  37  49 W5        29.94F
RIVERTON       FAIR      53  40  61 E7        29.96S
CASPER         FAIR      43  40  89 E3        30.00S
DOUGLAS        FAIR      46  41  82 SE13      30.03F

$$
WYZ021-027>030-104>119-050800-
SOUTHERN WYOMING

CITY           SKY/WX    TMP DP  RH WIND       PRES   REMARKS
EVANSTON       CLOUDY    46  37  71 E5        30.00F
KEMMERER       PTSUNNY   45  37  76 CALM      30.04F
FORT BRIDGER   PTSUNNY   46  41  81 E7        30.04F
ROCK SPRINGS   FAIR      44  39  82 E6        30.01F
DIXON          FAIR      41  37  83 NE7       30.02F
RAWLINS        FAIR      42  39  89 NE3       30.03F
SARATOGA       FAIR      39  37  93 CALM      30.04F
LARAMIE        CLOUDY    43  42  97 S12       30.07F
CHEYENNE       FOG       44  42  93 SE6       30.08F VSB 3/4
TORRINGTON     CLOUDY    48  42  80 SE8       30.07F
PINE BLUFFS    FOG       43  43 100 SE8       30.10S VSB 3/4

$$


USA.gov is the U.S. government's official web portal to all federal, state and local government web resources and services.